Station Historical Data
Daily Summary for August 23, 2017 Units:  English    Metric   Both
Next Day »
Daily Weekly Monthly Yearly Custom
  High: Low: Average:
Temperature: 89.5 °F 70.2 °F 77.9 °F
Dew Point: 59.6 °F 48.4 °F 55.1 °F
Humidity: 62% 25% 47%
Wind Speed: 13.0mph 0.0mph 2.2mph
Wind Gust: 16.0mph - -
Wind- - SSE
Pressure: 29.94 in 29.82 in -
Precipitation: 0.00 in    
Historical Graphs
 
 
Tabular Data for August 23, 2017
Time Temperature Dew Point Pressure Wind Wind Speed Wind Gust Humidity Rainfall Rate (Hourly) solar Conditions
00:01 72.8 °F 59.0 °F 29.94 in East 2.0 mph 6.0 mph 62% 0.00 in 0.00 W/m2
00:06 72.8 °F 59.0 °F 29.94 in ESE 6.0 mph 11.0 mph 62% 0.00 in 0.00 W/m2
00:12 72.8 °F 59.0 °F 29.94 in ESE 6.0 mph 7.0 mph 62% 0.00 in 0.00 W/m2
00:17 72.9 °F 59.1 °F 29.94 in Calm   8.0 mph 62% 0.00 in 0.00 W/m2
00:22 72.9 °F 59.1 °F 29.94 in East 8.0 mph 14.0 mph 62% 0.00 in 0.00 W/m2
00:27 72.9 °F 59.1 °F 29.94 in East 6.0 mph 14.0 mph 62% 0.00 in 0.00 W/m2
00:32 72.9 °F 58.7 °F 29.94 in ESE 13.0 mph 13.0 mph 61% 0.00 in 0.00 W/m2
00:37 72.9 °F 58.7 °F 29.94 in ESE 4.0 mph 12.0 mph 61% 0.00 in 0.00 W/m2
00:42 72.9 °F 58.7 °F 29.94 in ESE 6.0 mph 12.0 mph 61% 0.00 in 0.00 W/m2
00:47 72.8 °F 58.6 °F 29.94 in East 5.0 mph 12.0 mph 61% 0.00 in 0.00 W/m2
00:52 72.8 °F 58.6 °F 29.94 in ESE 2.0 mph 15.0 mph 61% 0.00 in 0.00 W/m2
00:57 72.8 °F 58.6 °F 29.93 in East 7.0 mph 15.0 mph 61% 0.00 in 0.00 W/m2
01:02 72.8 °F 58.6 °F 29.93 in ESE 8.0 mph 11.0 mph 61% 0.00 in 0.00 W/m2
01:07 72.7 °F 58.5 °F 29.93 in East 8.0 mph 15.0 mph 61% 0.00 in 0.00 W/m2
01:12 72.7 °F 58.5 °F 29.93 in ESE 1.0 mph 14.0 mph 61% 0.00 in 0.00 W/m2
01:17 72.7 °F 58.5 °F 29.93 in East 1.0 mph 14.0 mph 61% 0.00 in 0.00 W/m2
01:22 72.6 °F 58.4 °F 29.93 in Calm   5.0 mph 61% 0.00 in 0.00 W/m2
01:27 72.6 °F 58.4 °F 29.93 in Calm     61% 0.00 in 0.00 W/m2
01:32 72.5 °F 58.3 °F 29.93 in Calm   2.0 mph 61% 0.00 in 0.00 W/m2
01:37 72.4 °F 58.2 °F 29.93 in East 1.0 mph 9.0 mph 61% 0.00 in 0.00 W/m2
01:42 72.3 °F 58.1 °F 29.92 in ESE 6.0 mph 12.0 mph 61% 0.00 in 0.00 W/m2
01:47 72.2 °F 58.0 °F 29.92 in East 6.0 mph 11.0 mph 61% 0.00 in 0.00 W/m2
01:52 72.2 °F 58.0 °F 29.92 in ESE 6.0 mph 9.0 mph 61% 0.00 in 0.00 W/m2
01:57 72.1 °F 57.5 °F 29.93 in East 4.0 mph 14.0 mph 60% 0.00 in 0.00 W/m2
02:07 72.0 °F 57.4 °F 29.92 in East 1.0 mph 9.0 mph 60% 0.00 in 0.00 W/m2
02:12 72.0 °F 56.9 °F 29.92 in East 7.0 mph 13.0 mph 59% 0.00 in 0.00 W/m2
02:17 72.1 °F 57.0 °F 29.92 in ESE 7.0 mph 12.0 mph 59% 0.00 in 0.00 W/m2
02:22 72.1 °F 57.0 °F 29.92 in Calm   9.0 mph 59% 0.00 in 0.00 W/m2
02:27 72.1 °F 57.0 °F 29.92 in Calm   6.0 mph 59% 0.00 in 0.00 W/m2
02:28 72.1 °F 57.0 °F 29.92 in Calm   6.0 mph 59% 0.00 in 0.00 W/m2
02:33 72.1 °F 57.0 °F 29.92 in East 1.0 mph 7.0 mph 59% 0.00 in 0.00 W/m2
02:38 72.1 °F 57.0 °F 29.92 in East 2.0 mph 6.0 mph 59% 0.00 in 0.00 W/m2
02:43 72.1 °F 57.0 °F 29.92 in ESE 2.0 mph 8.0 mph 59% 0.00 in 0.00 W/m2
02:48 72.0 °F 56.4 °F 29.92 in ESE 7.0 mph 7.0 mph 58% 0.00 in 0.00 W/m2
02:53 71.9 °F 56.3 °F 29.92 in East 6.0 mph 8.0 mph 58% 0.00 in 0.00 W/m2
02:58 71.9 °F 55.9 °F 29.92 in Calm   5.0 mph 57% 0.00 in 0.00 W/m2
03:03 71.9 °F 56.3 °F 29.92 in East 4.0 mph 4.0 mph 58% 0.00 in 0.00 W/m2
03:08 71.8 °F 56.2 °F 29.93 in Calm   6.0 mph 58% 0.00 in 0.00 W/m2
03:13 71.8 °F 56.2 °F 29.92 in Calm   5.0 mph 58% 0.00 in 0.00 W/m2
03:18 71.7 °F 56.2 °F 29.92 in Calm   6.0 mph 58% 0.00 in 0.00 W/m2
03:23 71.7 °F 56.2 °F 29.92 in Calm   6.0 mph 58% 0.00 in 0.00 W/m2
03:28 71.7 °F 55.7 °F 29.92 in Calm   6.0 mph 57% 0.00 in 0.00 W/m2
03:33 71.6 °F 56.1 °F 29.92 in ESE 5.0 mph 7.0 mph 58% 0.00 in 0.00 W/m2
03:38 71.6 °F 56.1 °F 29.92 in ESE 5.0 mph 8.0 mph 58% 0.00 in 0.00 W/m2
03:41 71.5 °F 56.0 °F 29.92 in Calm   5.0 mph 58% 0.00 in 0.00 W/m2
03:46 71.5 °F 56.0 °F 29.92 in Calm   5.0 mph 58% 0.00 in 0.00 W/m2
03:51 71.4 °F 55.9 °F 29.92 in Calm   6.0 mph 58% 0.00 in 0.00 W/m2
03:56 71.4 °F 55.9 °F 29.92 in ESE 4.0 mph 8.0 mph 58% 0.00 in 0.00 W/m2
04:02 71.3 °F 55.8 °F 29.92 in ESE 5.0 mph 8.0 mph 58% 0.00 in 0.00 W/m2
04:07 71.2 °F 55.7 °F 29.92 in Calm   8.0 mph 58% 0.00 in 0.00 W/m2
04:12 71.1 °F 55.6 °F 29.92 in ESE 4.0 mph 11.0 mph 58% 0.00 in 0.00 W/m2
04:17 71.0 °F 55.5 °F 29.92 in East 6.0 mph 8.0 mph 58% 0.00 in 0.00 W/m2
04:22 71.0 °F 55.0 °F 29.92 in East 5.0 mph 8.0 mph 57% 0.00 in 0.00 W/m2
04:27 70.9 °F 54.9 °F 29.92 in East 8.0 mph 8.0 mph 57% 0.00 in 0.00 W/m2
04:32 70.8 °F 54.8 °F 29.92 in East 7.0 mph 9.0 mph 57% 0.00 in 0.00 W/m2
04:37 70.8 °F 54.8 °F 29.92 in East 2.0 mph 6.0 mph 57% 0.00 in 0.00 W/m2
04:47 70.8 °F 54.3 °F 29.92 in East 4.0 mph 11.0 mph 56% 0.00 in 0.00 W/m2
04:52 70.8 °F 54.3 °F 29.91 in East 5.0 mph 7.0 mph 56% 0.00 in 0.00 W/m2
04:57 70.8 °F 54.3 °F 29.91 in East 6.0 mph 7.0 mph 56% 0.00 in 0.00 W/m2
05:02 70.8 °F 54.3 °F 29.91 in ESE 4.0 mph 12.0 mph 56% 0.00 in 0.00 W/m2
05:07 70.8 °F 54.3 °F 29.91 in East 5.0 mph 9.0 mph 56% 0.00 in 0.00 W/m2
05:12 70.8 °F 54.3 °F 29.91 in East 4.0 mph 6.0 mph 56% 0.00 in 0.00 W/m2
05:17 70.8 °F 54.3 °F 29.91 in East 2.0 mph 12.0 mph 56% 0.00 in 0.00 W/m2
05:22 70.8 °F 54.3 °F 29.91 in Calm   11.0 mph 56% 0.00 in 0.00 W/m2
05:27 70.8 °F 54.3 °F 29.91 in Calm   8.0 mph 56% 0.00 in 0.00 W/m2
05:32 70.7 °F 54.2 °F 29.91 in ESE 1.0 mph 8.0 mph 56% 0.00 in 0.00 W/m2
05:37 70.7 °F 54.2 °F 29.91 in ESE 7.0 mph 12.0 mph 56% 0.00 in 0.00 W/m2
05:39 70.7 °F 54.2 °F 29.91 in East 7.0 mph 12.0 mph 56% 0.00 in 0.00 W/m2
05:44 70.7 °F 54.2 °F 29.91 in Calm   13.0 mph 56% 0.00 in 0.00 W/m2
05:49 70.6 °F 54.2 °F 29.91 in East 8.0 mph 12.0 mph 56% 0.00 in 0.00 W/m2
05:54 70.6 °F 54.2 °F 29.91 in Calm   12.0 mph 56% 0.00 in 0.00 W/m2
05:59 70.5 °F 54.1 °F 29.91 in East 1.0 mph 13.0 mph 56% 0.00 in 0.00 W/m2
06:04 70.5 °F 54.1 °F 29.91 in Calm   12.0 mph 56% 0.00 in 0.00 W/m2
06:09 70.4 °F 54.0 °F 29.91 in East 5.0 mph 9.0 mph 56% 0.00 in 0.00 W/m2
06:14 70.4 °F 54.0 °F 29.91 in Calm   14.0 mph 56% 0.00 in 0.00 W/m2
06:20 70.4 °F 54.0 °F 29.91 in East 4.0 mph 12.0 mph 56% 0.00 in 0.00 W/m2
06:25 70.3 °F 53.9 °F 29.91 in ESE 5.0 mph 11.0 mph 56% 0.00 in 5.00 W/m2
06:30 70.3 °F 53.9 °F 29.91 in ESE 2.0 mph 13.0 mph 56% 0.00 in 7.00 W/m2
06:35 70.3 °F 53.9 °F 29.91 in Calm   12.0 mph 56% 0.00 in 11.00 W/m2
06:40 70.2 °F 53.8 °F 29.91 in ESE 5.0 mph 13.0 mph 56% 0.00 in 14.00 W/m2
06:45 70.2 °F 53.8 °F 29.91 in ESE 6.0 mph 14.0 mph 56% 0.00 in 18.00 W/m2
06:50 70.2 °F 53.8 °F 29.92 in Calm   11.0 mph 56% 0.00 in 21.00 W/m2
06:55 70.2 °F 54.3 °F 29.91 in East 4.0 mph 16.0 mph 57% 0.00 in 28.00 W/m2
07:00 70.2 °F 54.3 °F 29.91 in ESE 12.0 mph 12.0 mph 57% 0.00 in 35.00 W/m2
07:05 70.2 °F 54.3 °F 29.91 in East 11.0 mph 11.0 mph 57% 0.00 in 47.00 W/m2
07:10 70.2 °F 54.3 °F 29.92 in ESE 9.0 mph 13.0 mph 57% 0.00 in 58.00 W/m2
07:15 70.2 °F 54.3 °F 29.92 in ESE 4.0 mph 12.0 mph 57% 0.00 in 72.00 W/m2
07:20 70.2 °F 54.3 °F 29.92 in Calm   12.0 mph 57% 0.00 in 86.00 W/m2
07:25 70.2 °F 54.3 °F 29.92 in ESE 7.0 mph 11.0 mph 57% 0.00 in 104.00 W/m2
07:30 70.2 °F 54.3 °F 29.92 in ESE 5.0 mph 9.0 mph 57% 0.00 in 120.00 W/m2
07:35 70.2 °F 54.8 °F 29.92 in ESE 8.0 mph 12.0 mph 58% 0.00 in 134.00 W/m2
07:40 70.3 °F 54.8 °F 29.92 in East 11.0 mph 13.0 mph 58% 0.00 in 151.00 W/m2
07:45 70.3 °F 54.8 °F 29.92 in East 2.0 mph 15.0 mph 58% 0.00 in 174.00 W/m2
07:50 70.3 °F 54.8 °F 29.92 in ESE 8.0 mph 9.0 mph 58% 0.00 in 193.00 W/m2
07:55 70.4 °F 54.9 °F 29.92 in Calm   11.0 mph 58% 0.00 in 209.00 W/m2
08:00 70.4 °F 54.9 °F 29.92 in East 5.0 mph 11.0 mph 58% 0.00 in 227.00 W/m2
08:05 70.6 °F 55.6 °F 29.92 in Calm   11.0 mph 59% 0.00 in 246.00 W/m2
08:10 70.6 °F 55.6 °F 29.92 in East 4.0 mph 11.0 mph 59% 0.00 in 267.00 W/m2
08:12 70.7 °F 55.7 °F 29.92 in ESE 6.0 mph 11.0 mph 59% 0.00 in 271.00 W/m2
08:17 70.8 °F 55.8 °F 29.92 in Calm   12.0 mph 59% 0.00 in 288.00 W/m2
08:22 70.9 °F 55.9 °F 29.92 in East 5.0 mph 12.0 mph 59% 0.00 in 304.00 W/m2
08:27 71.0 °F 56.4 °F 29.92 in ENE 2.0 mph 13.0 mph 60% 0.00 in 316.00 W/m2
08:32 71.2 °F 56.6 °F 29.92 in East 4.0 mph 9.0 mph 60% 0.00 in 334.00 W/m2
08:37 71.3 °F 56.7 °F 29.92 in Calm   11.0 mph 60% 0.00 in 353.00 W/m2
08:42 71.5 °F 56.9 °F 29.92 in ESE 1.0 mph 9.0 mph 60% 0.00 in 366.00 W/m2
08:47 71.7 °F 57.1 °F 29.92 in Calm   11.0 mph 60% 0.00 in 383.00 W/m2
08:52 71.9 °F 56.8 °F 29.91 in ESE 7.0 mph 12.0 mph 59% 0.00 in 399.00 W/m2
08:57 72.1 °F 57.0 °F 29.91 in ESE 2.0 mph 11.0 mph 59% 0.00 in 417.00 W/m2
09:02 72.3 °F 57.2 °F 29.92 in Calm   8.0 mph 59% 0.00 in 434.00 W/m2
09:07 72.5 °F 56.9 °F 29.92 in Calm   9.0 mph 58% 0.00 in 452.00 W/m2
09:09 72.6 °F 57.5 °F 29.92 in ESE 5.0 mph 9.0 mph 59% 0.00 in 452.00 W/m2
09:14 72.9 °F 57.3 °F 29.92 in ESE 7.0 mph 11.0 mph 58% 0.00 in 466.00 W/m2
09:19 73.1 °F 57.0 °F 29.92 in ESE 1.0 mph 13.0 mph 57% 0.00 in 485.00 W/m2
09:24 73.6 °F 57.4 °F 29.92 in ESE 4.0 mph 11.0 mph 57% 0.00 in 492.00 W/m2
09:29 73.9 °F 57.2 °F 29.92 in Calm   7.0 mph 56% 0.00 in 508.00 W/m2
09:34 74.3 °F 57.6 °F 29.92 in Calm   4.0 mph 56% 0.00 in 526.00 W/m2
09:39 74.6 °F 57.9 °F 29.92 in Calm   8.0 mph 56% 0.00 in 538.00 W/m2
09:44 75.1 °F 58.3 °F 29.92 in Calm   5.0 mph 56% 0.00 in 554.00 W/m2
09:49 75.4 °F 58.1 °F 29.92 in ESE 4.0 mph 6.0 mph 55% 0.00 in 566.00 W/m2
09:54 75.7 °F 58.4 °F 29.92 in Calm   2.0 mph 55% 0.00 in 582.00 W/m2
09:59 76.0 °F 58.7 °F 29.92 in Calm   4.0 mph 55% 0.00 in 592.00 W/m2
10:04 76.4 °F 59.6 °F 29.92 in Calm   1.0 mph 56% 0.00 in 606.00 W/m2
10:09 76.7 °F 59.3 °F 29.92 in Calm     55% 0.00 in 624.00 W/m2
10:14 77.0 °F 58.0 °F 29.92 in Calm     52% 0.00 in 636.00 W/m2
10:19 77.5 °F 58.0 °F 29.92 in Calm     51% 0.00 in 654.00 W/m2
10:24 77.8 °F 58.2 °F 29.92 in Calm     51% 0.00 in 668.00 W/m2
10:29 78.0 °F 55.6 °F 29.92 in Calm     46% 0.00 in 679.00 W/m2
10:34 78.5 °F 55.4 °F 29.92 in Calm     45% 0.00 in 691.00 W/m2
10:39 79.1 °F 56.6 °F 29.92 in Calm     46% 0.00 in 700.00 W/m2
10:44 79.8 °F 56.6 °F 29.92 in Calm   5.0 mph 45% 0.00 in 710.00 W/m2
10:49 80.3 °F 57.7 °F 29.92 in Calm   2.0 mph 46% 0.00 in 719.00 W/m2
10:54 80.8 °F 57.5 °F 29.92 in Calm   2.0 mph 45% 0.00 in 731.00 W/m2
10:59 81.3 °F 57.3 °F 29.92 in Calm   1.0 mph 44% 0.00 in 742.00 W/m2
11:04 81.9 °F 55.2 °F 29.92 in South 4.0 mph 5.0 mph 40% 0.00 in 749.00 W/m2
11:09 82.2 °F 56.8 °F 29.91 in Calm   1.0 mph 42% 0.00 in 756.00 W/m2
11:14 82.6 °F 57.9 °F 29.91 in SSW 1.0 mph 5.0 mph 43% 0.00 in 765.00 W/m2
11:19 82.9 °F 57.5 °F 29.91 in WSW 2.0 mph 6.0 mph 42% 0.00 in 775.00 W/m2
11:24 83.1 °F 54.9 °F 29.91 in Calm   2.0 mph 38% 0.00 in 780.00 W/m2
11:29 83.6 °F 58.1 °F 29.91 in Calm   3.0 mph 42% 0.00 in 791.00 W/m2
11:34 84.0 °F 58.5 °F 29.91 in Calm   3.0 mph 42% 0.00 in 802.00 W/m2
11:39 84.3 °F 59.4 °F 29.91 in WSW 1.0 mph 4.0 mph 43% 0.00 in 802.00 W/m2
11:44 84.5 °F 57.5 °F 29.91 in WSW 1.0 mph 6.0 mph 40% 0.00 in 810.00 W/m2
11:49 84.7 °F 57.7 °F 29.90 in Calm   3.0 mph 40% 0.00 in 821.00 W/m2
11:54 84.9 °F 57.2 °F 29.90 in Calm   5.0 mph 39% 0.00 in 846.00 W/m2
11:59 85.2 °F 56.8 °F 29.90 in Calm   4.0 mph 38% 0.00 in 872.00 W/m2
12:04 85.6 °F 57.8 °F 29.90 in Calm   4.0 mph 39% 0.00 in 846.00 W/m2
12:10 85.9 °F 56.6 °F 29.90 in Calm   5.0 mph 37% 0.00 in 758.00 W/m2
12:15 86.3 °F 54.7 °F 29.90 in Calm   5.0 mph 34% 0.00 in 838.00 W/m2
12:20 86.5 °F 54.0 °F 29.90 in Calm   6.0 mph 33% 0.00 in 835.00 W/m2
12:25 86.8 °F 53.4 °F 29.90 in Calm   4.0 mph 32% 0.00 in 844.00 W/m2
12:30 87.1 °F 54.5 °F 29.90 in Calm   7.0 mph 33% 0.00 in 844.00 W/m2
12:35 87.2 °F 54.6 °F 29.90 in NW 8.0 mph 9.0 mph 33% 0.00 in 851.00 W/m2
12:40 87.3 °F 52.1 °F 29.90 in West 4.0 mph 8.0 mph 30% 0.00 in 849.00 W/m2
12:45 87.5 °F 54.9 °F 29.90 in WNW 2.0 mph 8.0 mph 33% 0.00 in 847.00 W/m2
12:50 87.5 °F 54.0 °F 29.90 in Calm   7.0 mph 32% 0.00 in 854.00 W/m2
12:55 87.7 °F 55.9 °F 29.90 in WSW 4.0 mph 10.0 mph 34% 0.00 in 860.00 W/m2
13:00 88.3 °F 52.0 °F 29.90 in West 4.0 mph 9.0 mph 29% 0.00 in 858.00 W/m2
13:05 88.8 °F 52.5 °F 29.89 in West 1.0 mph 9.0 mph 29% 0.00 in 860.00 W/m2
13:10 88.6 °F 52.3 °F 29.90 in WNW 6.0 mph 8.0 mph 29% 0.00 in 853.00 W/m2
13:15 88.5 °F 51.3 °F 29.90 in West 7.0 mph 9.0 mph 28% 0.00 in 860.00 W/m2
13:20 88.7 °F 48.4 °F 29.90 in West 2.0 mph 11.0 mph 25% 0.00 in 856.00 W/m2
13:25 89.0 °F 52.7 °F 29.89 in WSW 3.0 mph 12.0 mph 29% 0.00 in 853.00 W/m2
13:30 89.1 °F 49.8 °F 29.90 in Calm   8.0 mph 26% 0.00 in 853.00 W/m2
13:35 88.9 °F 52.6 °F 29.89 in SW 2.0 mph 11.0 mph 29% 0.00 in 853.00 W/m2
13:40 88.9 °F 50.6 °F 29.89 in WSW 8.0 mph 14.0 mph 27% 0.00 in 846.00 W/m2
13:45 89.2 °F 51.9 °F 29.89 in WNW 8.0 mph 9.0 mph 28% 0.00 in 844.00 W/m2
13:50 89.3 °F 53.8 °F 29.89 in Calm   11.0 mph 30% 0.00 in 842.00 W/m2
14:00 89.3 °F 52.9 °F 29.89 in Calm   10.0 mph 29% 0.00 in 831.00 W/m2
14:05 89.5 °F 53.1 °F 29.89 in WNW 1.0 mph 8.0 mph 29% 0.00 in 823.00 W/m2
14:10 89.3 °F 51.0 °F 29.88 in Calm   10.0 mph 27% 0.00 in 823.00 W/m2
14:15 89.2 °F 51.9 °F 29.88 in West 3.0 mph 10.0 mph 28% 0.00 in 821.00 W/m2
14:20 89.1 °F 51.8 °F 29.88 in Calm   9.0 mph 28% 0.00 in 810.00 W/m2
14:26 89.0 °F 52.7 °F 29.88 in WSW 2.0 mph 9.0 mph 29% 0.00 in 805.00 W/m2
14:31 89.1 °F 51.8 °F 29.88 in NW 1.0 mph 7.0 mph 28% 0.00 in 791.00 W/m2
14:36 88.8 °F 52.5 °F 29.88 in WSW 1.0 mph 6.0 mph 29% 0.00 in 788.00 W/m2
14:41 88.8 °F 53.4 °F 29.87 in West 6.0 mph 8.0 mph 30% 0.00 in 779.00 W/m2
14:46 88.7 °F 53.3 °F 29.88 in NW 2.0 mph 6.0 mph 30% 0.00 in 766.00 W/m2
14:51 88.4 °F 52.1 °F 29.87 in Calm   7.0 mph 29% 0.00 in 765.00 W/m2
14:56 88.4 °F 52.1 °F 29.87 in Calm   6.0 mph 29% 0.00 in 756.00 W/m2
15:01 88.3 °F 52.0 °F 29.87 in Calm   8.0 mph 29% 0.00 in 749.00 W/m2
15:06 88.4 °F 53.1 °F 29.87 in NNW 1.0 mph 6.0 mph 30% 0.00 in 740.00 W/m2
15:11 88.7 °F 53.3 °F 29.87 in Calm   7.0 mph 30% 0.00 in 731.00 W/m2
15:16 88.9 °F 51.6 °F 29.87 in WNW 5.0 mph 11.0 mph 28% 0.00 in 717.00 W/m2
15:21 88.7 °F 51.4 °F 29.86 in NNW 5.0 mph 10.0 mph 28% 0.00 in 708.00 W/m2
15:26 88.5 °F 50.3 °F 29.86 in Calm   10.0 mph 27% 0.00 in 698.00 W/m2
15:31 88.4 °F 51.2 °F 29.86 in Calm   7.0 mph 28% 0.00 in 687.00 W/m2
15:36 88.4 °F 52.1 °F 29.86 in NW 2.0 mph 9.0 mph 29% 0.00 in 673.00 W/m2
15:41 88.6 °F 50.4 °F 29.86 in Calm   3.0 mph 27% 0.00 in 666.00 W/m2
15:46 88.5 °F 51.3 °F 29.86 in WNW 2.0 mph 7.0 mph 28% 0.00 in 654.00 W/m2
15:51 88.6 °F 51.4 °F 29.85 in WNW 2.0 mph 8.0 mph 28% 0.00 in 640.00 W/m2
15:56 88.7 °F 51.4 °F 29.85 in WSW 5.0 mph 9.0 mph 28% 0.00 in 626.00 W/m2
16:01 88.4 °F 51.2 °F 29.85 in NW 1.0 mph 5.0 mph 28% 0.00 in 613.00 W/m2
16:06 88.3 °F 52.0 °F 29.85 in Calm   5.0 mph 29% 0.00 in 603.00 W/m2
16:11 88.2 °F 52.0 °F 29.85 in Calm   5.0 mph 29% 0.00 in 589.00 W/m2
16:16 88.2 °F 52.0 °F 29.85 in Calm   2.0 mph 29% 0.00 in 573.00 W/m2
16:21 87.9 °F 51.7 °F 29.85 in Calm   4.0 mph 29% 0.00 in 561.00 W/m2
16:26 87.9 °F 52.6 °F 29.84 in West 9.0 mph 10.0 mph 30% 0.00 in 543.00 W/m2
16:31 88.0 °F 51.8 °F 29.85 in West 4.0 mph 9.0 mph 29% 0.00 in 531.00 W/m2
16:36 87.9 °F 51.7 °F 29.85 in WNW 6.0 mph 7.0 mph 29% 0.00 in 517.00 W/m2
16:41 87.9 °F 51.7 °F 29.85 in WNW 2.0 mph 7.0 mph 29% 0.00 in 499.00 W/m2
16:46 88.0 °F 51.8 °F 29.84 in Calm   7.0 mph 29% 0.00 in 489.00 W/m2
16:51 87.7 °F 51.5 °F 29.84 in Calm   9.0 mph 29% 0.00 in 471.00 W/m2
16:56 87.5 °F 51.4 °F 29.84 in Calm   2.0 mph 29% 0.00 in 459.00 W/m2
17:01 87.3 °F 51.2 °F 29.84 in WNW 4.0 mph 6.0 mph 29% 0.00 in 443.00 W/m2
17:06 87.1 °F 51.9 °F 29.84 in Calm     30% 0.00 in 429.00 W/m2
17:11 86.9 °F 51.8 °F 29.84 in WNW 4.0 mph 7.0 mph 30% 0.00 in 415.00 W/m2
17:16 86.9 °F 52.7 °F 29.84 in Calm     31% 0.00 in 396.00 W/m2
17:21 86.8 °F 52.6 °F 29.84 in Calm   7.0 mph 31% 0.00 in 380.00 W/m2
17:26 86.7 °F 51.6 °F 29.83 in NW 2.0 mph 6.0 mph 30% 0.00 in 366.00 W/m2
17:31 86.7 °F 51.6 °F 29.84 in Calm   4.0 mph 30% 0.00 in 346.00 W/m2
17:37 86.6 °F 51.5 °F 29.83 in West 1.0 mph 6.0 mph 30% 0.00 in 325.00 W/m2
17:42 86.5 °F 51.4 °F 29.83 in Calm   5.0 mph 30% 0.00 in 315.00 W/m2
17:47 86.3 °F 52.1 °F 29.83 in NW 4.0 mph 8.0 mph 31% 0.00 in 294.00 W/m2
17:52 86.1 °F 52.0 °F 29.83 in Calm   7.0 mph 31% 0.00 in 283.00 W/m2
17:57 85.9 °F 51.8 °F 29.83 in Calm   8.0 mph 31% 0.00 in 267.00 W/m2
18:02 85.8 °F 52.6 °F 29.83 in WNW 6.0 mph 6.0 mph 32% 0.00 in 243.00 W/m2
18:07 85.6 °F 51.5 °F 29.83 in Calm   7.0 mph 31% 0.00 in 236.00 W/m2
18:12 85.5 °F 50.6 °F 29.83 in Calm   1.0 mph 30% 0.00 in 214.00 W/m2
18:17 85.3 °F 51.3 °F 29.83 in West 6.0 mph 6.0 mph 31% 0.00 in 192.00 W/m2
18:22 85.2 °F 51.2 °F 29.83 in West 3.0 mph 5.0 mph 31% 0.00 in 183.00 W/m2
18:27 84.9 °F 51.8 °F 29.83 in West 2.0 mph 3.0 mph 32% 0.00 in 169.00 W/m2
18:32 84.7 °F 51.6 °F 29.83 in Calm   3.0 mph 32% 0.00 in 155.00 W/m2
18:37 84.6 °F 52.4 °F 29.82 in Calm   7.0 mph 33% 0.00 in 135.00 W/m2
18:42 84.3 °F 53.7 °F 29.83 in Calm   2.0 mph 35% 0.00 in 118.00 W/m2
18:47 84.1 °F 55.0 °F 29.83 in Calm   4.0 mph 37% 0.00 in 104.00 W/m2
18:52 83.8 °F 54.8 °F 29.82 in Calm   3.0 mph 37% 0.00 in 91.00 W/m2
18:57 83.6 °F 55.3 °F 29.83 in Calm   4.0 mph 38% 0.00 in 77.00 W/m2
19:02 83.4 °F 55.9 °F 29.82 in Calm     39% 0.00 in 67.00 W/m2
19:07 83.1 °F 55.6 °F 29.83 in Calm     39% 0.00 in 54.00 W/m2
19:12 82.5 °F 56.5 °F 29.83 in Calm     41% 0.00 in 46.00 W/m2
19:17 82.0 °F 56.7 °F 29.83 in West 4.0 mph 5.0 mph 42% 0.00 in 35.00 W/m2
19:22 81.5 °F 56.2 °F 29.83 in Calm     42% 0.00 in 28.00 W/m2
19:27 81.1 °F 57.2 °F 29.83 in Calm     44% 0.00 in 21.00 W/m2
19:32 80.7 °F 56.8 °F 29.83 in Calm     44% 0.00 in 18.00 W/m2
19:37 80.2 °F 57.0 °F 29.83 in Calm     45% 0.00 in 14.00 W/m2
19:42 79.5 °F 56.9 °F 29.83 in Calm     46% 0.00 in 11.00 W/m2
19:47 79.0 °F 57.1 °F 29.83 in Calm     47% 0.00 in 5.00 W/m2
19:52 78.5 °F 56.6 °F 29.83 in Calm     47% 0.00 in 0.00 W/m2
19:57 78.0 °F 56.7 °F 29.83 in Calm     48% 0.00 in 0.00 W/m2
20:02 77.6 °F 57.0 °F 29.83 in Calm   2.0 mph 49% 0.00 in 0.00 W/m2
20:07 77.2 °F 56.6 °F 29.83 in Calm     49% 0.00 in 0.00 W/m2
20:12 76.9 °F 56.9 °F 29.83 in Calm     50% 0.00 in 0.00 W/m2
20:17 76.7 °F 56.7 °F 29.83 in Calm   1.0 mph 50% 0.00 in 0.00 W/m2
20:18 76.7 °F 56.7 °F 29.83 in Calm   1.0 mph 50% 0.00 in 0.00 W/m2
20:23 76.5 °F 57.0 °F 29.84 in Calm     51% 0.00 in 0.00 W/m2
20:28 76.2 °F 56.8 °F 29.83 in Calm     51% 0.00 in 0.00 W/m2
20:33 76.0 °F 57.1 °F 29.84 in Calm     52% 0.00 in 0.00 W/m2
20:38 75.9 °F 57.0 °F 29.84 in Calm     52% 0.00 in 0.00 W/m2
20:43 75.8 °F 56.9 °F 29.84 in Calm     52% 0.00 in 0.00 W/m2
20:48 75.8 °F 56.9 °F 29.84 in Calm     52% 0.00 in 0.00 W/m2
20:53 75.7 °F 57.4 °F 29.84 in Calm     53% 0.00 in 0.00 W/m2
20:58 75.6 °F 57.3 °F 29.84 in Calm     53% 0.00 in 0.00 W/m2
21:03 75.6 °F 57.3 °F 29.84 in Calm     53% 0.00 in 0.00 W/m2
21:09 75.6 °F 57.3 °F 29.85 in Calm     53% 0.00 in 0.00 W/m2
21:14 75.6 °F 57.3 °F 29.85 in Calm     53% 0.00 in 0.00 W/m2
21:19 75.6 °F 57.3 °F 29.85 in Calm     53% 0.00 in 0.00 W/m2
21:24 75.6 °F 57.8 °F 29.85 in Calm     54% 0.00 in 0.00 W/m2
21:29 75.5 °F 57.7 °F 29.85 in Calm     54% 0.00 in 0.00 W/m2
21:34 75.5 °F 57.7 °F 29.85 in Calm     54% 0.00 in 0.00 W/m2
21:39 75.2 °F 57.4 °F 29.85 in Calm     54% 0.00 in 0.00 W/m2
21:44 75.0 °F 57.8 °F 29.85 in Calm   3.0 mph 55% 0.00 in 0.00 W/m2
21:49 75.0 °F 57.8 °F 29.85 in Calm     55% 0.00 in 0.00 W/m2
21:54 74.9 °F 58.2 °F 29.85 in Calm   2.0 mph 56% 0.00 in 0.00 W/m2
21:59 74.8 °F 57.6 °F 29.85 in Calm   1.0 mph 55% 0.00 in 0.00 W/m2
22:04 74.7 °F 57.5 °F 29.85 in Calm   3.0 mph 55% 0.00 in 0.00 W/m2
22:09 74.6 °F 56.9 °F 29.85 in Calm   4.0 mph 54% 0.00 in 0.00 W/m2
22:14 74.5 °F 56.8 °F 29.85 in Calm   4.0 mph 54% 0.00 in 0.00 W/m2
22:19 74.4 °F 56.2 °F 29.85 in Calm   4.0 mph 53% 0.00 in 0.00 W/m2
22:24 74.3 °F 55.6 °F 29.85 in Calm   1.0 mph 52% 0.00 in 0.00 W/m2
22:29 74.2 °F 55.5 °F 29.85 in Calm   5.0 mph 52% 0.00 in 0.00 W/m2
22:34 74.2 °F 54.9 °F 29.85 in ESE 1.0 mph 6.0 mph 51% 0.00 in 0.00 W/m2
22:39 74.1 °F 54.8 °F 29.85 in Calm   6.0 mph 51% 0.00 in 0.00 W/m2
22:44 74.0 °F 54.2 °F 29.85 in ESE 2.0 mph 7.0 mph 50% 0.00 in 0.00 W/m2
22:49 73.9 °F 54.1 °F 29.85 in ESE 5.0 mph 8.0 mph 50% 0.00 in 0.00 W/m2
22:54 73.9 °F 54.1 °F 29.85 in Calm   9.0 mph 50% 0.00 in 0.00 W/m2
22:59 73.8 °F 54.0 °F 29.85 in ESE 2.0 mph 9.0 mph 50% 0.00 in 0.00 W/m2
23:04 73.7 °F 53.4 °F 29.85 in ESE 2.0 mph 7.0 mph 49% 0.00 in 0.00 W/m2
23:09 73.7 °F 53.4 °F 29.85 in ESE 1.0 mph 9.0 mph 49% 0.00 in 0.00 W/m2
23:14 73.6 °F 52.7 °F 29.85 in Calm   8.0 mph 48% 0.00 in 0.00 W/m2
23:19 73.6 °F 52.7 °F 29.85 in Calm   11.0 mph 48% 0.00 in 0.00 W/m2
23:24 73.5 °F 52.6 °F 29.85 in East 7.0 mph 8.0 mph 48% 0.00 in 0.00 W/m2
23:29 73.5 °F 52.6 °F 29.85 in East 7.0 mph 12.0 mph 48% 0.00 in 0.00 W/m2
23:34 73.5 °F 52.6 °F 29.85 in ESE 8.0 mph 8.0 mph 48% 0.00 in 0.00 W/m2
23:39 73.4 °F 52.5 °F 29.85 in ESE 7.0 mph 9.0 mph 48% 0.00 in 0.00 W/m2
23:44 73.4 °F 52.5 °F 29.85 in Calm   7.0 mph 48% 0.00 in 0.00 W/m2
23:49 73.4 °F 52.0 °F 29.85 in Calm   14.0 mph 47% 0.00 in 0.00 W/m2
23:54 73.3 °F 51.9 °F 29.85 in East 5.0 mph 9.0 mph 47% 0.00 in 0.00 W/m2
23:59 73.3 °F 51.9 °F 29.85 in ESE 7.0 mph 11.0 mph 47% 0.00 in 0.00 W/m2
Foresthill Weather
 WU-history PHP script courtesy of   Juneau County Weather.
powered by Cumulus v1.9.3 (1059)
Ambient Weather VWS v14.00
Top Contact Website Map Copyright © 2007 - 2018 Foresthillweather.com Never base important decisions on this or any weather information obtained from the Internet